Location: Dompnac
(44.5644°N, 4.1026°E)
Time: 02:49:20
(UTC+00:00)

USA 234 - Pass Details

Date: 18 January 2021
Orbit: 1100 x 1107 km, 123.0° (Epoch: 01 March)

Event Time Altitude Azimuth Distance (km) Brightness Sun altitude
Exits shadow 20:09:16 45° 314° (NW) 1,462 4.0 -38.0°
Drops below altitude 10° 20:13:35 10° 310° (NW) 2,966 6.1 -38.7°
Sets 20:16:04 0° 310° (NW) 3,927 6.9 -39.2°
